Regional Weather Roundup
Issued by NWS

Home | Current Version | Previous Version | Graphics & Text | Print | Product List | Glossary On
Versions: 1 2 3 4 5 6 7 8 9 10 11 12 13 14 15 16 17 18 19 20 21 22 23 24 25 26 27 28 29 30 31 32 33 34 35 36 37 38 39 40 41 42 43 44 45 46 47 48 49 50
000
ASUS43 KBIS 232010
RWRND

NORTH DAKOTA REGIONAL WEATHER ROUNDUP
NATIONAL WEATHER SERVICE BISMARCK ND
200 PM CST SUN NOV 23 2014

NOTE: "FAIR" INDICATES FEW OR NO CLOUDS BELOW 12,000 FEET WITH NO
SIGNIFICANT WEATHER AND/OR OBSTRUCTIONS TO VISIBILITY.


NDZ001>003-009>011-017-232100-
NORTHWEST NORTH DAKOTA

CITY           SKY/WX    TMP DP  RH WIND       PRES   REMARKS
WILLISTON      CLOUDY    21  12  68 NW25      29.74R WCI   4
MINOT          FLURRIES  18   9  68 NW24G33   29.60R WCI   0
MINOT AFB      CLOUDY    18  10  71 NW23G33   29.60R WCI   1
$$

NDZ018>021-031>035-040>046-232100-
SOUTHWEST NORTH DAKOTA

CITY           SKY/WX    TMP DP  RH WIND       PRES   REMARKS
BISMARCK       CLOUDY    24  15  68 NW26G35   29.62R WCI   8
DICKINSON      CLOUDY    24  15  68 NW36G43   29.63R WCI   6
GARRISON         N/A     20  12  71 NW29G38   29.60R WCI   1
HETTINGER ARPT CLOUDY    27  18  69 NW38G49   29.64S WCI   9
$$

NDZ004>008-012>016-024-026-027-054-232100-
NORTHEAST NORTH DAKOTA

CITY           SKY/WX    TMP DP  RH WIND       PRES   REMARKS
GRAND FORKS    CLOUDY    36  26  67 NW15      29.43S
GRND FRKS AFB  CLOUDY    34  24  65 NW14      29.44R
DEVILS LAKE    CLOUDY    28  16  59 N21       29.45R WCI  15
$$

NDZ022-023-025-028>030-036>039-047>053-232100-
SOUTHEAST NORTH DAKOTA

CITY           SKY/WX    TMP DP  RH WIND       PRES   REMARKS
FARGO          CLOUDY    37  23  56 W23       29.46R
JAMESTOWN      CLOUDY    27  18  69 W24G31    29.48F WCI  12
$$




USA.gov is the U.S. government's official web portal to all federal, state and local government web resources and services.